Location: Miami
(25.7742°N, 80.1936°W)
Time: 01:25:55
(UTC-04:00)

ISS - Pass Details

Date: 23 June 2025
Orbit: 413 x 417 km, 51.6° (Epoch: 16 July)

Event Time Altitude Azimuth Distance (km) Brightness Sun altitude
Exits shadow 03:56:58 14° 4° (N) 1,246 -0.8 -28.3°
Drops below altitude 10° 03:57:45 10° 13° (NNE) 1,489 -0.2 -28.2°
Sets 04:00:07 0° 28° (NNE) 2,355 1.2 -27.8°
